HJ3DAG-13 Weather Reports


time (UTC)temp
F
wind
direction
speed
knots
gust
knots
rain 1hr
in
rain 24hr
in
rain mn
in
humidity
%
barometer
mb
20260505002432 60 60 5.2 0.0 0.01 0.23 0.01 75 1016.0
20260505002050 60 60 5.2 0.0 0.01 0.23 0.01 75 1016.0
20260505001432 60 60 5.2 0.0 0.01 0.23 0.01 75 1016.0
20260505001050 60 60 5.2 0.0 0.01 0.23 0.01 75 1016.0
20260505000050 61 70 5.2 0.0 0.00 0.26 0.00 75 1016.0
20260504235432 61 70 5.2 0.0 0.01 0.39 0.01 75 1016.0
20260504235050 61 70 5.2 0.0 0.01 0.39 0.01 75 1016.0
20260504234432 61 70 5.2 0.0 0.01 0.39 0.01 75 1016.0
20260504234050 61 70 5.2 0.0 0.01 0.39 0.01 75 1016.0
20260504233432 61 70 5.2 0.0 0.01 0.39 0.01 75 1016.0
20260504233050 60 110 2.6 3.5 0.01 0.39 0.01 72 1016.0
20260504232432 60 110 2.6 3.5 0.01 0.39 0.01 72 1015.0
20260504232050 60 110 2.6 3.5 0.01 0.39 0.01 72 1015.0
20260504231050 60 110 2.6 3.5 0.01 0.39 0.01 72 1015.0
20260504230050 60 110 2.6 3.5 0.00 0.38 0.00 72 1015.0
20260504225432 60 110 2.6 3.5 0.03 0.37 0.03 72 1015.0
20260504225050 60 110 2.6 3.5 0.03 0.37 0.03 72 1015.0
20260504224051 64 70 5.2 0.0 0.03 0.37 0.03 68 1015.0
20260504223432 64 70 5.2 0.0 0.03 0.38 0.03 68 1015.0
20260504223050 62 60 8.7 0.0 0.03 0.38 0.03 72 1015.0
20260504222432 62 60 8.7 0.0 0.03 0.38 0.03 71 1014.0
20260504222050 62 60 8.7 0.0 0.03 0.38 0.03 71 1014.0
20260504221432 62 60 8.7 0.0 0.03 0.38 0.03 71 1014.0
20260504221050 62 60 8.7 0.0 0.03 0.38 0.03 72 1014.0
20260504220432 62 60 8.7 0.0 0.00 0.35 0.00 74 1014.0
20260504220050 62 60 8.7 0.0 0.00 0.35 0.00 74 1014.0
20260504215050 62 60 8.7 0.0 0.03 0.36 0.03 73 1014.0
20260504214432 62 60 8.7 0.0 0.03 0.36 0.03 73 1014.0
20260504214050 62 60 8.7 0.0 0.03 0.36 0.03 73 1014.0
20260504213432 62 60 8.7 0.0 0.03 0.36 0.03 73 1014.0
20260504213050 62 60 8.7 0.0 0.03 0.36 0.03 73 1014.0
20260504212431 62 60 8.7 0.0 0.03 0.36 0.03 72 1014.0
20260504212050 62 60 8.7 0.0 0.03 0.36 0.03 72 1014.0
20260504211432 62 60 8.7 0.0 0.03 0.36 0.03 71 1014.0
20260504211050 62 60 8.7 0.0 0.03 0.36 0.03 70 1014.0
20260504210432 62 127 1.7 2.6 0.00 0.33 0.00 68 1014.0
20260504210050 62 127 1.7 2.6 0.00 0.33 0.00 68 1014.0
20260504205432 62 127 1.7 2.6 0.04 0.33 0.04 68 1014.0
20260504205050 62 127 1.7 2.6 0.04 0.33 0.04 68 1014.0
20260504204050 62 127 1.7 2.6 0.04 0.33 0.04 68 1014.0
20260504203432 62 127 1.7 2.6 0.04 0.34 0.04 68 1014.0
20260504203050 62 127 1.7 2.6 0.04 0.34 0.04 68 1014.0
20260504202432 62 127 1.7 2.6 0.04 0.34 0.04 68 1014.0
20260504202050 62 127 1.7 2.6 0.04 0.34 0.04 68 1014.0
20260504201050 62 127 1.7 2.6 0.04 0.34 0.04 68 1014.0
20260504200432 62 127 1.7 2.6 0.00 0.31 0.00 69 1014.0
20260504200050 62 127 1.7 2.6 0.00 0.30 0.00 70 1014.0
20260504195432 62 127 1.7 2.6 0.04 0.33 0.04 73 1014.0
20260504195052 62 127 1.7 2.6 0.04 0.33 0.04 78 1014.0
20260504194432 62 127 1.7 2.6 0.04 0.33 0.04 78 1014.0
20260504194050 62 127 1.7 2.6 0.04 0.33 0.04 78 1014.0
20260504193432 65 127 1.7 2.6 0.04 0.35 0.04 68 1014.0
20260504193050 65 150 10.4 0.0 0.04 0.35 0.04 68 1014.0
20260504192432 65 150 10.4 0.0 0.04 0.35 0.04 69 1014.0
20260504192051 65 150 10.4 0.0 0.04 0.35 0.04 68 1014.0
20260504191432 65 150 10.4 0.0 0.04 0.36 0.04 68 1014.0
20260504191049 65 150 10.4 0.0 0.04 0.36 0.04 68 1014.0
20260504190432 65 150 10.4 0.0 0.00 0.31 0.00 66 1014.0
20260504190050 65 150 10.4 0.0 0.00 0.31 0.00 66 1014.0
20260504185050 65 150 10.4 0.0 0.03 0.36 0.03 66 1014.0
20260504184432 65 150 10.4 0.0 0.03 0.33 0.03 66 1014.0
20260504184049 65 150 10.4 0.0 0.03 0.33 0.03 66 1014.0
20260504183052 65 150 10.4 0.0 0.03 0.36 0.03 67 1014.0
20260504182432 65 150 10.4 0.0 0.03 0.36 0.03 67 1014.0
20260504182050 65 150 10.4 0.0 0.03 0.36 0.03 67 1014.0
20260504181432 65 150 10.4 0.0 0.03 0.37 0.03 67 1014.0
20260504181050 65 150 10.4 0.0 0.03 0.36 0.03 67 1014.0
20260504180050 65 120 7.0 0.0 0.00 0.39 0.00 67 1014.0
20260504175432 65 120 7.0 0.0 0.04 0.26 0.04 67 1014.0
20260504175050 65 120 7.0 0.0 0.04 0.25 0.04 68 1014.0
20260504174432 65 120 7.0 0.0 0.04 0.26 0.04 69 1014.0
20260504174050 65 120 7.0 0.0 0.04 0.27 0.04 69 1014.0
20260504173050 65 120 7.0 0.0 0.04 0.29 0.04 71 1014.0
20260504172432 65 120 7.0 0.0 0.04 0.29 0.04 71 1015.0
20260504172050 65 120 7.0 0.0 0.04 0.29 0.04 72 1015.0
20260504171431 65 120 7.0 0.0 0.04 0.29 0.04 74 1015.0
20260504171050 65 120 7.0 0.0 0.04 0.29 0.04 74 1015.0
20260504151050 65 173 1.7 4.3 0.01 0.33 0.01 99 1016.0
20260504150432 65 173 1.7 4.3 0.00 0.33 0.00 99 1016.0
20260504141050 58 280 4.3 0.0 0.00 0.36 0.00 99 1017.0
20260504140432 58 280 4.3 0.0 0.00 0.36 0.00 99 1017.0
20260504130432 55 280 4.3 0.0 0.00 0.39 0.00 99 1018.0
20260504110432 55 280 4.3 0.0 0.00 0.45 0.00 99 1018.0
20260504100432 55 280 4.3 0.0 0.00 0.45 0.00 99 1018.0
20260504081050 55 280 4.3 0.0 0.00 0.43 0.00 99 1018.0
20260504080432 55 280 4.3 0.0 0.00 0.43 0.00 99 1018.0
20260504050432 55 280 4.3 0.0 0.00 0.32 0.00 99 1020.0
20260504045050 55 280 4.3 0.0 0.00 0.32 0.00 99 1020.0
20260504044432 55 101 3.5 2.6 0.00 0.32 0.00 99 1020.0
20260504044050 55 101 3.5 2.6 0.00 0.32 0.00 99 1020.0
20260504043432 55 101 3.5 2.6 0.00 0.32 0.00 99 1020.0
20260504043050 55 101 3.5 2.6 0.00 0.32 0.00 99 1020.0
20260504042432 55 101 3.5 2.6 0.00 0.32 0.00 99 1020.0
20260504042050 55 101 3.5 2.6 0.00 0.32 0.00 99 1020.0
20260504041432 55 101 3.5 2.6 0.00 0.32 0.00 99 1020.0
20260504041050 55 101 3.5 2.6 0.00 0.32 0.00 99 1020.0
20260504040432 55 101 3.5 2.6 0.00 0.32 0.00 99 1020.0
20260504040050 55 101 3.5 2.6 0.00 0.32 0.00 99 1020.0
20260504035432 57 340 0.9 0.0 0.00 0.32 0.00 10 1020.0
20260504035050 57 340 0.9 0.0 0.00 0.32 0.00 100 1020.0
20260504034431 57 340 0.9 0.0 0.00 0.32 0.00 10 1020.0
20260504034050 57 340 0.9 0.0 0.00 0.32 0.00 99 1020.0
20260504033432 57 340 0.9 0.0 0.00 0.32 0.00 99 1020.0
20260504033050 57 340 0.9 0.0 0.00 0.34 0.00 99 1020.0
20260504032432 57 340 0.9 0.0 0.00 0.33 0.00 99 1020.0
20260504031050 57 340 0.9 0.0 0.00 0.33 0.00 99 1020.0
20260504030432 57 0 1.7 0.0 0.00 0.32 0.00 99 1020.0
20260504030050 57 0 1.7 0.0 0.00 0.32 0.00 99 1020.0
20260504025432 57 0 1.7 0.0 0.00 0.32 0.00 99 1020.0
20260504025050 57 0 1.7 0.0 0.00 0.34 0.00 99 1020.0
20260504024050 57 0 1.7 0.0 0.00 0.42 0.00 99 1020.0
20260504023432 57 0 1.7 0.0 0.00 0.32 0.00 98 1020.0
20260504023050 57 0 1.7 0.0 0.00 0.32 0.00 98 1020.0
20260504022432 57 0 1.7 0.0 0.00 0.32 0.00 98 1019.0
20260504022050 57 0 1.7 0.0 0.00 0.32 0.00 98 1019.0
20260504021050 57 0 1.7 0.0 0.00 0.46 0.00 98 1019.0
20260504020432 57 0 1.7 0.0 0.00 0.32 0.00 98 1019.0
20260504020050 57 0 1.7 0.0 0.00 0.32 0.00 98 1019.0
20260504015431 57 0 1.7 0.0 0.01 0.32 0.01 98 1019.0
20260504015050 57 0 1.7 0.0 0.01 0.35 0.01 97 1019.0
20260504014432 57 0 1.7 0.0 0.01 0.45 0.01 97 1019.0
20260504014050 57 0 1.7 0.0 0.01 0.45 0.01 97 1019.0
20260504013431 57 0 1.7 0.0 0.01 0.32 0.01 96 1019.0
20260504013050 58 124 3.5 3.5 0.01 0.32 0.01 95 1019.0
20260504012432 58 124 3.5 3.5 0.01 0.32 0.01 95 1018.0
20260504012050 58 124 3.5 3.5 0.01 0.54 0.01 95 1018.0
20260504011432 58 124 3.5 3.5 0.01 0.66 0.01 94 1018.0
20260504011050 58 124 3.5 3.5 0.01 0.66 0.01 94 1018.0
20260504010432 58 124 3.5 3.5 0.00 0.38 0.00 94 1018.0
20260504010050 58 124 3.5 3.5 0.00 0.32 0.00 93 1018.0
20260504005432 58 124 3.5 3.5 0.01 0.33 0.01 93 1018.0
20260504005051 58 124 3.5 3.5 0.01 0.33 0.01 93 1018.0
20260504004432 58 124 3.5 3.5 0.01 0.33 0.01 93 1018.0
20260504004050 58 124 3.5 3.5 0.01 0.33 0.01 93 1018.0
20260504003432 58 124 3.5 3.5 0.01 0.33 0.01 93 1018.0
20260504003050 58 124 3.5 3.5 0.01 0.33 0.01 93 1018.0